Weather History for LIRN - October, 2013

Change the Weather History Date:

Wednesday, October 23, 2013

  Actual Average Record
Temperature  
Mean Temperature 68 °F -  
Max Temperature 77 °F 65 °F 77 °F (2004)
Min Temperature 60 °F 48 °F 46 °F (2014)
Cooling Degree Days 4    
Growing Degree Days 18 (Base 50)    
Moisture  
Dew Point 63 °F    
Average Humidity 84    
Maximum Humidity 94    
Minimum Humidity 65    
Precipitation  
Precipitation 0.00 in 0.20 in - ()
Sea Level Pressure  
Sea Level Pressure 30.16 in    
Wind  
Wind Speed 2 mph ()    
Max Wind Speed 6 mph    
Max Gust Speed -    
Visibility 1.8 miles    
Events Fog    
Averages and records for this station are not official NWS values.
T = Trace of Precipitation, MM = Missing Value Source: Averaged Metar Reports

Daily Weather History Graph

Daily Weather History Graph

Search for Another Location

Airport or City:

Trip Planner

Search our weather history database for the weather conditions in past years. The results will help you decide how hot, cold, wet, or windy it might be!

Date:

Astronomy

Oct. 23, 2013 Rise Set
Actual Time 7:23 AM CEST 6:10 PM CEST
Civil Twilight 6:55 AM CEST 6:38 PM CEST
Nautical Twilight 6:22 AM CEST 7:10 PM CEST
Astronomical Twilight 5:51 AM CEST 7:42 PM CEST
Moon 9:25 PM CEST (10/23) 11:27 AM CEST (10/23)
Length of Visible Light 11h 43m
Length of Day
10h 47m
Waning Gibbous, 81% of the Moon is Illuminated
Oct 23
Waning Gibbous
Oct 27
Last Quarter
Nov 3
New
Nov 10
First Quarter
Nov 17
Full

Hourly Weather History & Observations

Time (CEST) Temp. Dew Point Humidity Pressure Visibility Wind Dir Wind Speed Gust Speed Precip Events Conditions
12:20 AM 68.0 °F 64.4 °F 88% 30.21 in 3.7 mi ENE 2.3 mph - N/A   Mostly Cloudy
12:50 AM 69.8 °F 64.4 °F 83% 30.21 in 3.7 mi Variable 2.3 mph - N/A   Mostly Cloudy
1:20 AM 68.0 °F 64.4 °F 88% 30.21 in 3.7 mi NE 2.3 mph - N/A   Mostly Cloudy
1:50 AM 68.0 °F 62.6 °F 83% 30.21 in 3.7 mi Variable 2.3 mph - N/A   Mostly Cloudy
2:20 AM 66.2 °F 62.6 °F 88% 30.18 in 3.7 mi NE 3.5 mph - N/A   Mostly Cloudy
2:50 AM 66.2 °F 62.6 °F 88% 30.18 in 3.1 mi Variable 2.3 mph - N/A   Scattered Clouds
3:20 AM 64.4 °F 62.6 °F 94% 30.18 in 2.5 mi Variable 1.2 mph - N/A   Scattered Clouds
3:50 AM 62.6 °F 60.8 °F 94% 30.18 in 1.9 mi Calm Calm - N/A   Scattered Clouds
4:20 AM 64.4 °F 60.8 °F 88% 30.15 in 1.9 mi Calm Calm - N/A   Scattered Clouds
4:50 AM 62.6 °F 60.8 °F 94% 30.15 in 1.2 mi Calm Calm - N/A   Partly Cloudy
5:20 AM 62.6 °F 60.8 °F 94% 30.15 in 0.6 mi Calm Calm - N/A   Mist
5:50 AM 60.8 °F 57.2 °F 88% 30.15 in 0.6 mi NNW 2.3 mph - N/A   Mist
6:20 AM 60.8 °F 59.0 °F 94% 30.15 in 0.6 mi NNW 2.3 mph - N/A   Mist
6:50 AM 64.4 °F 62.6 °F 94% 30.15 in 0.6 mi NNW 3.5 mph - N/A   Mist
7:20 AM 64.4 °F 62.6 °F 94% 30.15 in 0.1 mi NNE 4.6 mph - N/A Fog Fog
7:50 AM 64.4 °F 62.6 °F 94% 30.18 in 0.1 mi Variable 2.3 mph - N/A Fog Fog
8:20 AM 64.4 °F 62.6 °F 94% 30.18 in 0.1 mi Variable 2.3 mph - N/A Fog Fog
8:50 AM 64.4 °F 62.6 °F 94% 30.18 in 0.3 mi East 3.5 mph - N/A Fog Fog
9:20 AM 64.4 °F 62.6 °F 94% 30.18 in 0.3 mi ENE 4.6 mph - N/A Fog Fog
9:50 AM 64.4 °F 62.6 °F 94% 30.18 in 0.3 mi NNE 4.6 mph - N/A Fog Fog
10:20 AM 64.4 °F 62.6 °F 94% 30.18 in 0.4 mi NE 4.6 mph - N/A Fog Fog
10:50 AM 66.2 °F 64.4 °F 94% 30.18 in 0.5 mi ENE 3.5 mph - N/A Fog Fog
11:20 AM 68.0 °F 64.4 °F 88% 30.18 in 1.2 mi NE 3.5 mph - N/A   Partly Cloudy
11:50 AM 71.6 °F 64.4 °F 78% 30.18 in 1.9 mi Variable 2.3 mph - N/A   Partly Cloudy
12:20 PM 73.4 °F 64.4 °F 73% 30.18 in 1.9 mi Variable 2.3 mph - N/A   Partly Cloudy
12:50 PM 75.2 °F 64.4 °F 69% 30.18 in 2.2 mi West 3.5 mph - N/A   Scattered Clouds
1:20 PM 77.0 °F 64.4 °F 65% 30.15 in 2.2 mi Variable 3.5 mph - N/A   Scattered Clouds
1:50 PM 75.2 °F 64.4 °F 69% 30.15 in 3.7 mi South 5.8 mph - N/A   Scattered Clouds
2:20 PM 75.2 °F 62.6 °F 65% 30.15 in 4.3 mi South 4.6 mph - N/A   Unknown
2:50 PM 75.2 °F 64.4 °F 69% 30.15 in - SSW 5.8 mph - N/A   Clear
3:20 PM 75.2 °F 62.6 °F 65% 30.15 in - South 4.6 mph - N/A   Clear
3:50 PM 75.2 °F 62.6 °F 65% 30.12 in - South 4.6 mph - N/A   Clear
4:20 PM 73.4 °F 62.6 °F 69% 30.12 in - SW 5.8 mph - N/A   Clear
4:50 PM 73.4 °F 62.6 °F 69% 30.12 in - South 4.6 mph - N/A   Clear
5:20 PM 71.6 °F 64.4 °F 78% 30.12 in - South 5.8 mph - N/A   Clear
5:50 PM 71.6 °F 62.6 °F 73% 30.12 in - South 5.8 mph - N/A   Clear
6:20 PM 69.8 °F 64.4 °F 83% 30.15 in - South 4.6 mph - N/A   Clear
6:50 PM 69.8 °F 64.4 °F 83% 30.15 in - South 4.6 mph - N/A   Clear
7:50 PM 69.8 °F 64.4 °F 83% 30.15 in - Variable 2.3 mph - N/A   Clear
8:20 PM 68.0 °F 64.4 °F 88% 30.15 in - Variable 2.3 mph - N/A   Clear
8:50 PM 68.0 °F 62.6 °F 83% 30.15 in - West 1.2 mph - N/A   Clear
9:20 PM 68.0 °F 64.4 °F 88% 30.18 in - Variable 2.3 mph - N/A   Clear
9:50 PM 68.0 °F 62.6 °F 83% 30.18 in - NE 1.2 mph - N/A   Clear
10:20 PM 64.4 °F 60.8 °F 88% 30.18 in - Calm Calm - N/A   Clear
10:50 PM 66.2 °F 62.6 °F 88% 30.18 in - ENE 1.2 mph - N/A   Clear
11:20 PM 64.4 °F 60.8 °F 88% 30.15 in 3.1 mi Calm Calm - N/A   Partly Cloudy
11:50 PM 64.4 °F 60.8 °F 88% 30.15 in 1.9 mi North 1.2 mph - N/A   Scattered Clouds